Precipitable_Water
0.38 0.38 0.38 0.38 0.36 0.34 0.34 0.32 0.34 0.38 0.44 0.48 0.52 0.56 0.60 0.60 0.56 0.52 0.52 0.52 0.54 0.56 0.58 0.60 0.62 0.66 0.71 0.75 0.75 0.73 0.73 0.71 0.71 0.70 0.70 0.68 0.68 0.66 0.66 0.66 0.66 0.64 0.64 0.62 0.62 0.62 0.60 0.62 0.62 0.62 0.62 0.62 0.60 0.60 0.60 0.60 0.60 0.60 0.58 0.58 0.58 0.58 0.56 0.54 0.54 0.54 0.56 0.58 0.60
0.40 0.40 0.40 0.38 0.38 0.36 0.36 0.34 0.34 0.38 0.42 0.46 0.52 0.56 0.60 0.62 0.56 0.54 0.52 0.52 0.54 0.56 0.56 0.60 0.62 0.64 0.68 0.73 0.77 0.77 0.75 0.73 0.71 0.70 0.68 0.66 0.66 0.66 0.66 0.66 0.66 0.64 0.62 0.62 0.62 0.62 0.62 0.62 0.62 0.62 0.62 0.62 0.60 0.60 0.60 0.60 0.60 0.60 0.60 0.60 0.60 0.60 0.58 0.58 0.56 0.56 0.54 0.54 0.56
0.42 0.42 0.42 0.40 0.40 0.38 0.38 0.36 0.36 0.36 0.38 0.44 0.50 0.56 0.60 0.62 0.58 0.54 0.52 0.52 0.54 0.54 0.56 0.58 0.60 0.60 0.62 0.68 0.71 0.71 0.70 0.70 0.70 0.68 0.66 0.66 0.64 0.64 0.64 0.64 0.64 0.62 0.62 0.62 0.60 0.60 0.60 0.60 0.60 0.60 0.60 0.60 0.60 0.58 0.58 0.60 0.62 0.62 0.62 0.60 0.64 0.62 0.60 0.60 0.58 0.58 0.56 0.56 0.54
0.44 0.42 0.42 0.42 0.40 0.40 0.40 0.38 0.38 0.36 0.36 0.40 0.46 0.54 0.60 0.64 0.60 0.58 0.54 0.52 0.54 0.54 0.56 0.56 0.58 0.58 0.58 0.60 0.60 0.62 0.64 0.64 0.64 0.64 0.64 0.64 0.64 0.62 0.62 0.60 0.60 0.60 0.58 0.58 0.58 0.58 0.58 0.58 0.58 0.60 0.62 0.60 0.60 0.58 0.58 0.60 0.62 0.64 0.64 0.66 0.66 0.66 0.64 0.62 0.62 0.60 0.60 0.58 0.58
0.44 0.44 0.44 0.42 0.42 0.42 0.42 0.42 0.40 0.38 0.38 0.38 0.44 0.50 0.56 0.62 0.62 0.60 0.56 0.54 0.54 0.54 0.54 0.56 0.56 0.56 0.56 0.58 0.58 0.60 0.60 0.60 0.62 0.62 0.62 0.62 0.62 0.62 0.60 0.58 0.56 0.54 0.54 0.54 0.54 0.56 0.56 0.60 0.60 0.62 0.62 0.60 0.60 0.60 0.60 0.60 0.62 0.64 0.66 0.66 0.66 0.66 0.66 0.66 0.64 0.64 0.62 0.60 0.60
0.44 0.44 0.44 0.44 0.44 0.44 0.44 0.44 0.42 0.40 0.40 0.40 0.42 0.46 0.52 0.58 0.62 0.62 0.58 0.56 0.54 0.54 0.54 0.54 0.56 0.56 0.56 0.58 0.58 0.60 0.60 0.60 0.60 0.62 0.62 0.62 0.62 0.60 0.58 0.56 0.54 0.52 0.52 0.52 0.56 0.60 0.62 0.62 0.62 0.62 0.60 0.60 0.60 0.60 0.60 0.60 0.60 0.62 0.62 0.60 0.62 0.64 0.66 0.66 0.64 0.64 0.62 0.62 0.60
0.44 0.44 0.46 0.46 0.44 0.44 0.44 0.44 0.44 0.44 0.42 0.40 0.40 0.44 0.48 0.52 0.58 0.60 0.60 0.58 0.58 0.56 0.56 0.54 0.54 0.56 0.56 0.58 0.60 0.60 0.62 0.62 0.62 0.62 0.62 0.62 0.62 0.60 0.56 0.56 0.54 0.54 0.54 0.56 0.60 0.62 0.62 0.62 0.60 0.60 0.60 0.60 0.60 0.60 0.60 0.60 0.58 0.56 0.54 0.56 0.58 0.60 0.62 0.62 0.64 0.62 0.62 0.60 0.58
0.46 0.46 0.46 0.46 0.46 0.46 0.46 0.46 0.46 0.44 0.42 0.42 0.40 0.42 0.44 0.50 0.56 0.58 0.58 0.58 0.58 0.58 0.58 0.58 0.56 0.56 0.56 0.58 0.58 0.60 0.62 0.62 0.62 0.62 0.62 0.62 0.60 0.58 0.58 0.56 0.58 0.58 0.58 0.60 0.62 0.62 0.60 0.60 0.60 0.58 0.58 0.58 0.58 0.58 0.58 0.58 0.56 0.54 0.54 0.54 0.56 0.58 0.60 0.60 0.62 0.62 0.60 0.58 0.56
0.46 0.46 0.48 0.48 0.48 0.46 0.46 0.46 0.46 0.46 0.44 0.42 0.42 0.42 0.44 0.46 0.54 0.56 0.56 0.58 0.56 0.58 0.58 0.58 0.56 0.56 0.56 0.58 0.58 0.60 0.62 0.62 0.62 0.62 0.62 0.62 0.60 0.60 0.58 0.58 0.58 0.60 0.60 0.60 0.60 0.60 0.60 0.60 0.60 0.60 0.60 0.60 0.58 0.58 0.58 0.56 0.56 0.54 0.54 0.52 0.54 0.56 0.56 0.58 0.60 0.60 0.58 0.58 0.56
0.46 0.48 0.48 0.48 0.48 0.48 0.48 0.48 0.48 0.46 0.46 0.44 0.44 0.44 0.44 0.46 0.50 0.54 0.56 0.56 0.56 0.56 0.56 0.56 0.54 0.56 0.56 0.58 0.58 0.60 0.62 0.62 0.62 0.62 0.62 0.62 0.60 0.60 0.60 0.58 0.58 0.58 0.58 0.60 0.62 0.62 0.62 0.62 0.62 0.62 0.62 0.62 0.60 0.58 0.58 0.56 0.56 0.54 0.54 0.54 0.54 0.54 0.54 0.56 0.56 0.58 0.58 0.56 0.56
0.48 0.48 0.48 0.48 0.48 0.48 0.48 0.48 0.46 0.46 0.46 0.46 0.46 0.48 0.48 0.50 0.50 0.52 0.54 0.56 0.56 0.54 0.54 0.54 0.54 0.54 0.54 0.56 0.58 0.60 0.62 0.64 0.64 0.64 0.64 0.62 0.62 0.60 0.60 0.58 0.56 0.56 0.58 0.62 0.64 0.64 0.64 0.64 0.64 0.64 0.62 0.62 0.62 0.60 0.60 0.58 0.58 0.56 0.56 0.54 0.54 0.54 0.54 0.54 0.56 0.56 0.56 0.56 0.56
0.48 0.48 0.48 0.48 0.48 0.48 0.48 0.46 0.46 0.46 0.46 0.46 0.46 0.46 0.48 0.50 0.52 0.54 0.54 0.56 0.56 0.54 0.54 0.54 0.52 0.54 0.54 0.58 0.60 0.62 0.64 0.66 0.66 0.66 0.66 0.64 0.62 0.62 0.60 0.60 0.58 0.60 0.60 0.62 0.64 0.64 0.64 0.64 0.64 0.64 0.64 0.64 0.64 0.64 0.62 0.60 0.62 0.60 0.58 0.56 0.56 0.54 0.54 0.54 0.54 0.54 0.56 0.56 0.56
0.48 0.48 0.48 0.48 0.48 0.48 0.48 0.46 0.46 0.46 0.46 0.46 0.46 0.48 0.48 0.50 0.52 0.54 0.56 0.56 0.56 0.56 0.56 0.56 0.54 0.54 0.56 0.58 0.62 0.64 0.66 0.68 0.68 0.68 0.66 0.64 0.62 0.62 0.60 0.60 0.60 0.62 0.62 0.64 0.64 0.66 0.64 0.64 0.64 0.64 0.64 0.64 0.64 0.66 0.66 0.66 0.64 0.62 0.60 0.58 0.58 0.56 0.54 0.54 0.54 0.54 0.54 0.54 0.54
0.48 0.48 0.48 0.48 0.48 0.48 0.46 0.46 0.46 0.46 0.48 0.48 0.48 0.50 0.50 0.50 0.52 0.54 0.56 0.56 0.58 0.58 0.58 0.60 0.58 0.58 0.58 0.62 0.64 0.66 0.68 0.68 0.68 0.68 0.66 0.64 0.64 0.62 0.60 0.60 0.62 0.64 0.64 0.66 0.66 0.66 0.66 0.66 0.64 0.64 0.64 0.64 0.64 0.66 0.66 0.66 0.64 0.64 0.62 0.60 0.58 0.58 0.56 0.56 0.56 0.56 0.56 0.54 0.54
0.48 0.48 0.48 0.48 0.48 0.48 0.46 0.46 0.46 0.48 0.48 0.48 0.50 0.50 0.52 0.52 0.54 0.56 0.56 0.56 0.58 0.58 0.60 0.60 0.60 0.60 0.62 0.64 0.66 0.68 0.68 0.68 0.68 0.68 0.66 0.64 0.64 0.62 0.62 0.62 0.64 0.64 0.66 0.66 0.68 0.68 0.68 0.68 0.66 0.66 0.66 0.64 0.66 0.66 0.66 0.66 0.64 0.64 0.62 0.60 0.60 0.58 0.58 0.56 0.56 0.56 0.56 0.56 0.54
0.46 0.48 0.48 0.48 0.46 0.46 0.46 0.46 0.46 0.48 0.48 0.50 0.50 0.52 0.52 0.52 0.54 0.56 0.58 0.58 0.58 0.60 0.60 0.60 0.60 0.62 0.64 0.66 0.68 0.68 0.70 0.68 0.68 0.68 0.66 0.64 0.64 0.64 0.64 0.66 0.66 0.66 0.66 0.66 0.68 0.68 0.68 0.68 0.68 0.68 0.68 0.66 0.66 0.66 0.66 0.64 0.64 0.64 0.64 0.62 0.60 0.60 0.58 0.58 0.58 0.56 0.56 0.56 0.56
0.46 0.46 0.46 0.46 0.46 0.46 0.46 0.46 0.46 0.48 0.48 0.50 0.50 0.50 0.52 0.52 0.54 0.56 0.58 0.58 0.58 0.60 0.60 0.60 0.60 0.62 0.64 0.66 0.68 0.70 0.70 0.68 0.68 0.68 0.66 0.66 0.66 0.66 0.66 0.66 0.66 0.66 0.66 0.66 0.66 0.66 0.68 0.68 0.68 0.68 0.68 0.68 0.66 0.66 0.66 0.64 0.64 0.64 0.64 0.62 0.60 0.60 0.58 0.58 0.58 0.58 0.56 0.56 0.56
0.46 0.46 0.46 0.46 0.46 0.46 0.46 0.46 0.46 0.48 0.48 0.48 0.50 0.50 0.52 0.52 0.54 0.56 0.58 0.58 0.58 0.58 0.58 0.58 0.60 0.60 0.62 0.66 0.68 0.70 0.70 0.70 0.68 0.68 0.68 0.68 0.66 0.66 0.66 0.66 0.66 0.66 0.66 0.66 0.66 0.66 0.66 0.68 0.68 0.68 0.68 0.68 0.66 0.66 0.64 0.64 0.64 0.64 0.62 0.62 0.62 0.60 0.60 0.58 0.60 0.58 0.58 0.58 0.56
0.44 0.46 0.46 0.46 0.46 0.46 0.46 0.46 0.46 0.48 0.48 0.48 0.50 0.50 0.52 0.52 0.54 0.54 0.56 0.58 0.58 0.58 0.58 0.58 0.60 0.60 0.62 0.66 0.68 0.70 0.70 0.70 0.68 0.68 0.68 0.68 0.68 0.66 0.66 0.66 0.66 0.66 0.66 0.66 0.66 0.66 0.66 0.68 0.68 0.66 0.66 0.66 0.64 0.64 0.64 0.64 0.64 0.64 0.62 0.62 0.62 0.62 0.62 0.60 0.60 0.60 0.60 0.58 0.58
0.44 0.46 0.46 0.46 0.46 0.46 0.46 0.46 0.46 0.48 0.48 0.48 0.50 0.50 0.50 0.52 0.52 0.54 0.54 0.56 0.56 0.58 0.58 0.58 0.58 0.60 0.62 0.66 0.68 0.68 0.68 0.68 0.68 0.68 0.68 0.68 0.66 0.66 0.66 0.66 0.66 0.66 0.66 0.66 0.66 0.66 0.66 0.66 0.66 0.64 0.64 0.64 0.62 0.62 0.62 0.62 0.62 0.62 0.62 0.62 0.62 0.62 0.62 0.60 0.60 0.60 0.60 0.60 0.58
0.44 0.46 0.46 0.46 0.46 0.46 0.46 0.48 0.48 0.48 0.48 0.48 0.50 0.50 0.50 0.52 0.52 0.52 0.54 0.54 0.56 0.56 0.56 0.58 0.58 0.58 0.60 0.64 0.66 0.66 0.66 0.68 0.68 0.68 0.66 0.66 0.66 0.66 0.66 0.66 0.66 0.66 0.66 0.66 0.66 0.66 0.66 0.64 0.64 0.64 0.62 0.64 0.62 0.62 0.62 0.62 0.62 0.62 0.62 0.62 0.60 0.60 0.60 0.60 0.60 0.60 0.60 0.60 0.60
0.44 0.46 0.46 0.46 0.46 0.46 0.46 0.48 0.48 0.48 0.48 0.48 0.50 0.50 0.50 0.50 0.50 0.52 0.52 0.54 0.54 0.54 0.56 0.56 0.58 0.60 0.60 0.62 0.64 0.64 0.66 0.66 0.66 0.66 0.66 0.66 0.66 0.66 0.66 0.66 0.66 0.64 0.64 0.64 0.64 0.64 0.64 0.64 0.64 0.62 0.62 0.62 0.62 0.62 0.62 0.62 0.60 0.60 0.60 0.60 0.60 0.60 0.60 0.60 0.60 0.60 0.60 0.60 0.60
0.46 0.46 0.46 0.46 0.46 0.46 0.46 0.46 0.48 0.48 0.48 0.48 0.48 0.50 0.50 0.50 0.50 0.50 0.52 0.54 0.54 0.54 0.56 0.58 0.58 0.60 0.60 0.62 0.62 0.64 0.64 0.64 0.62 0.62 0.64 0.64 0.64 0.64 0.64 0.64 0.64 0.64 0.64 0.64 0.64 0.64 0.62 0.62 0.62 0.62 0.62 0.62 0.60 0.60 0.60 0.60 0.60 0.58 0.58 0.58 0.58 0.58 0.58 0.58 0.58 0.60 0.60 0.60 0.60
0.46 0.46 0.46 0.46 0.46 0.46 0.46 0.46 0.46 0.48 0.48 0.48 0.48 0.48 0.48 0.50 0.50 0.50 0.52 0.52 0.52 0.54 0.56 0.58 0.58 0.60 0.60 0.60 0.62 0.62 0.62 0.60 0.60 0.60 0.60 0.62 0.62 0.62 0.62 0.62 0.62 0.62 0.62 0.62 0.62 0.62 0.62 0.60 0.60 0.60 0.58 0.58 0.58 0.58 0.58 0.58 0.58 0.56 0.56 0.56 0.56 0.56 0.56 0.56 0.58 0.58 0.58 0.58 0.58
0.46 0.46 0.46 0.46 0.44 0.46 0.46 0.46 0.46 0.46 0.46 0.48 0.48 0.48 0.48 0.48 0.50 0.50 0.50 0.52 0.52 0.54 0.56 0.58 0.58 0.58 0.60 0.60 0.60 0.60 0.58 0.58 0.58 0.58 0.58 0.58 0.60 0.60 0.60 0.62 0.62 0.62 0.62 0.62 0.62 0.60 0.60 0.60 0.60 0.58 0.56 0.56 0.56 0.54 0.54 0.54 0.54 0.54 0.54 0.54 0.54 0.52 0.52 0.54 0.54 0.56 0.56 0.56 0.56
0.44 0.44 0.44 0.44 0.44 0.44 0.44 0.44 0.46 0.46 0.46 0.48 0.48 0.48 0.48 0.48 0.50 0.50 0.50 0.50 0.52 0.54 0.56 0.56 0.56 0.58 0.58 0.58 0.58 0.56 0.58 0.58 0.58 0.58 0.58 0.58 0.58 0.58 0.58 0.60 0.60 0.60 0.60 0.60 0.60 0.60 0.58 0.58 0.56 0.56 0.54 0.52 0.52 0.52 0.52 0.52 0.52 0.52 0.52 0.52 0.50 0.50 0.50 0.50 0.50 0.52 0.54 0.54 0.54
0.44 0.44 0.44 0.44 0.44 0.44 0.44 0.44 0.44 0.46 0.46 0.46 0.46 0.48 0.48 0.48 0.48 0.50 0.50 0.50 0.52 0.52 0.54 0.54 0.56 0.56 0.56 0.56 0.56 0.54 0.56 0.56 0.56 0.56 0.56 0.56 0.56 0.56 0.56 0.58 0.58 0.58 0.60 0.60 0.58 0.58 0.58 0.58 0.56 0.54 0.54 0.52 0.50 0.50 0.50 0.50 0.50 0.50 0.50 0.50 0.50 0.48 0.48 0.48 0.48 0.50 0.50 0.50 0.52
0.44 0.44 0.44 0.44 0.42 0.42 0.44 0.44 0.44 0.44 0.46 0.46 0.46 0.46 0.48 0.48 0.48 0.48 0.48 0.48 0.50 0.52 0.52 0.52 0.54 0.54 0.54 0.54 0.52 0.52 0.54 0.54 0.54 0.54 0.56 0.56 0.56 0.56 0.56 0.56 0.56 0.58 0.58 0.58 0.58 0.58 0.56 0.56 0.54 0.54 0.52 0.52 0.50 0.48 0.48 0.48 0.48 0.48 0.48 0.48 0.48 0.48 0.48 0.48 0.48 0.48 0.48 0.48 0.48
0.42 0.44 0.44 0.42 0.42 0.42 0.42 0.44 0.44 0.44 0.44 0.46 0.46 0.46 0.48 0.48 0.48 0.46 0.46 0.48 0.48 0.50 0.50 0.52 0.52 0.52 0.52 0.52 0.52 0.52 0.52 0.52 0.54 0.54 0.54 0.54 0.54 0.54 0.54 0.54 0.56 0.56 0.56 0.56 0.56 0.56 0.56 0.54 0.52 0.52 0.52 0.50 0.50 0.48 0.48 0.46 0.46 0.46 0.48 0.48 0.46 0.46 0.46 0.46 0.46 0.46 0.48 0.48 0.48
0.42 0.42 0.42 0.42 0.42 0.42 0.42 0.42 0.44 0.44 0.44 0.46 0.46 0.46 0.46 0.46 0.46 0.46 0.46 0.46 0.48 0.48 0.50 0.50 0.50 0.50 0.50 0.50 0.50 0.50 0.50 0.50 0.52 0.52 0.52 0.52 0.52 0.52 0.52 0.54 0.54 0.54 0.54 0.54 0.54 0.54 0.52 0.52 0.52 0.50 0.50 0.50 0.48 0.48 0.48 0.46 0.46 0.46 0.44 0.44 0.44 0.44 0.44 0.44 0.46 0.46 0.46 0.46 0.46
0.42 0.42 0.42 0.42 0.42 0.42 0.42 0.42 0.44 0.44 0.44 0.46 0.46 0.46 0.46 0.46 0.44 0.44 0.44 0.44 0.46 0.48 0.48 0.48 0.48 0.48 0.48 0.48 0.48 0.48 0.48 0.48 0.50 0.50 0.50 0.50 0.50 0.50 0.50 0.52 0.52 0.52 0.52 0.54 0.52 0.52 0.52 0.50 0.50 0.50 0.48 0.48 0.46 0.46 0.46 0.44 0.44 0.44 0.44 0.42 0.42 0.42 0.42 0.44 0.44 0.44 0.44 0.44 0.44
0.40 0.42 0.42 0.42 0.42 0.42 0.40 0.40 0.42 0.44 0.44 0.44 0.44 0.44 0.44 0.44 0.44 0.44 0.44 0.44 0.46 0.46 0.46 0.46 0.46 0.46 0.46 0.46 0.46 0.46 0.46 0.46 0.46 0.48 0.48 0.48 0.48 0.48 0.48 0.48 0.50 0.50 0.50 0.52 0.50 0.50 0.50 0.50 0.50 0.48 0.48 0.48 0.46 0.46 0.44 0.44 0.44 0.42 0.42 0.42 0.42 0.42 0.42 0.42 0.42 0.42 0.42 0.42 0.42
0.40 0.40 0.40 0.42 0.42 0.42 0.40 0.40 0.40 0.42 0.42 0.42 0.44 0.44 0.44 0.44 0.44 0.44 0.44 0.44 0.44 0.44 0.44 0.44 0.44 0.44 0.44 0.44 0.44 0.44 0.44 0.44 0.44 0.46 0.46 0.46 0.46 0.46 0.46 0.46 0.46 0.48 0.50 0.50 0.50 0.48 0.48 0.48 0.48 0.48 0.48 0.46 0.44 0.44 0.44 0.44 0.42 0.42 0.40 0.40 0.40 0.40 0.40 0.40 0.40 0.40 0.40 0.40 0.38
0.40 0.40 0.40 0.40 0.40 0.40 0.40 0.40 0.40 0.40 0.42 0.42 0.42 0.42 0.44 0.44 0.44 0.44 0.44 0.44 0.42 0.42 0.42 0.44 0.44 0.44 0.44 0.44 0.44 0.44 0.44 0.44 0.44 0.44 0.44 0.44 0.44 0.42 0.42 0.44 0.44 0.46 0.46 0.46 0.48 0.48 0.48 0.46 0.46 0.46 0.46 0.44 0.44 0.42 0.42 0.42 0.42 0.40 0.40 0.40 0.40 0.38 0.38 0.38 0.38 0.38 0.36 0.36 0.34
0.38 0.38 0.38 0.38 0.40 0.40 0.40 0.38 0.38 0.38 0.40 0.40 0.42 0.42 0.42 0.42 0.44 0.44 0.44 0.44 0.42 0.42 0.42 0.42 0.42 0.42 0.42 0.42 0.44 0.42 0.42 0.42 0.42 0.42 0.42 0.42 0.42 0.42 0.42 0.42 0.42 0.44 0.44 0.44 0.44 0.44 0.46 0.46 0.44 0.44 0.44 0.42 0.42 0.42 0.40 0.40 0.40 0.40 0.38 0.38 0.38 0.38 0.38 0.36 0.36 0.34 0.34 0.32 0.32
0.36 0.36 0.36 0.38 0.38 0.38 0.38 0.38 0.38 0.38 0.38 0.40 0.40 0.40 0.42 0.42 0.42 0.44 0.44 0.44 0.44 0.42 0.42 0.42 0.42 0.42 0.42 0.42 0.42 0.42 0.42 0.42 0.42 0.42 0.42 0.42 0.42 0.40 0.40 0.40 0.40 0.40 0.42 0.42 0.42 0.42 0.44 0.44 0.42 0.42 0.42 0.40 0.40 0.40 0.40 0.40 0.38 0.38 0.38 0.38 0.38 0.38 0.36 0.36 0.36 0.34 0.32 0.30 0.30
0.34 0.34 0.34 0.34 0.36 0.36 0.36 0.36 0.36 0.36 0.36 0.38 0.40 0.40 0.40 0.42 0.42 0.42 0.44 0.44 0.42 0.42 0.42 0.42 0.42 0.40 0.40 0.42 0.42 0.42 0.42 0.42 0.42 0.42 0.42 0.42 0.40 0.40 0.40 0.40 0.38 0.38 0.38 0.40 0.40 0.40 0.40 0.42 0.40 0.40 0.38 0.38 0.38 0.38 0.38 0.38 0.36 0.36 0.36 0.36 0.36 0.36 0.36 0.36 0.34 0.34 0.32 0.32 0.32
0.32 0.32 0.32 0.32 0.32 0.34 0.34 0.36 0.36 0.36 0.36 0.38 0.38 0.40 0.40 0.42 0.42 0.42 0.42 0.44 0.42 0.42 0.42 0.42 0.42 0.42 0.42 0.42 0.42 0.42 0.42 0.42 0.42 0.40 0.40 0.40 0.40 0.40 0.38 0.36 0.36 0.36 0.36 0.36 0.36 0.38 0.38 0.38 0.38 0.38 0.36 0.36 0.36 0.36 0.36 0.36 0.34 0.34 0.34 0.34 0.36 0.36 0.36 0.36 0.34 0.34 0.34 0.32 0.34
0.30 0.30 0.30 0.30 0.30 0.30 0.32 0.32 0.34 0.34 0.34 0.36 0.38 0.38 0.40 0.40 0.40 0.42 0.42 0.42 0.42 0.42 0.42 0.42 0.42 0.42 0.42 0.42 0.40 0.40 0.40 0.40 0.40 0.40 0.38 0.38 0.38 0.38 0.36 0.34 0.34 0.34 0.34 0.34 0.32 0.34 0.36 0.38 0.38 0.36 0.36 0.34 0.36 0.36 0.36 0.34 0.34 0.32 0.32 0.34 0.34 0.34 0.34 0.34 0.34 0.34 0.32 0.34 0.34
0.30 0.30 0.30 0.30 0.28 0.30 0.30 0.30 0.30 0.32 0.32 0.34 0.36 0.36 0.38 0.40 0.40 0.42 0.42 0.42 0.42 0.42 0.42 0.42 0.42 0.42 0.42 0.42 0.40 0.40 0.40 0.40 0.40 0.38 0.38 0.36 0.36 0.36 0.34 0.34 0.32 0.32 0.32 0.30 0.30 0.32 0.36 0.40 0.38 0.36 0.36 0.34 0.34 0.34 0.34 0.32 0.32 0.30 0.30 0.30 0.30 0.32 0.32 0.32 0.32 0.32 0.30 0.32 0.32
0.30 0.30 0.28 0.28 0.28 0.28 0.28 0.28 0.28 0.30 0.30 0.32 0.32 0.34 0.36 0.38 0.40 0.40 0.42 0.40 0.42 0.42 0.42 0.42 0.42 0.42 0.42 0.40 0.40 0.38 0.38 0.38 0.38 0.38 0.36 0.36 0.34 0.34 0.34 0.32 0.32 0.30 0.30 0.28 0.30 0.32 0.36 0.40 0.38 0.36 0.34 0.34 0.34 0.32 0.32 0.30 0.28 0.28 0.28 0.28 0.28 0.28 0.28 0.30 0.30 0.30 0.28 0.28 0.28
Wind_Speed
38 38 38 37 37 37 37 37 36 36 35 35 36 36 36 36 35 34 34 33 33 32 32 32 31 29 28 27 28 29 29 28 28 28 28 28 28 28 28 28 28 28 28 28 28 27 27 27 27 27 27 27 27 28 28 28 28 29 30 30 31 31 32 32 32 32 32 32 31
39 39 38 38 38 38 38 37 37 36 36 36 36 36 36 36 36 35 34 33 33 32 32 31 31 29 28 27 27 28 28 28 28 27 27 28 28 28 28 29 29 28 28 28 27 27 26 26 27 27 27 28 28 28 29 30 30 31 32 32 33 33 33 34 34 33 32 32 32
40 40 40 39 39 39 39 39 38 38 37 37 36 36 36 36 36 36 35 34 34 33 33 32 31 30 29 28 28 28 28 27 27 27 27 27 28 28 29 29 29 29 29 28 27 27 27 27 27 27 28 28 29 30 31 32 32 33 34 34 34 34 34 33 33 32 32 32 32
42 41 41 41 41 41 40 40 40 40 39 38 37 36 36 36 37 36 36 36 35 35 34 34 33 32 31 31 30 29 29 28 28 29 29 28 28 28 28 28 29 29 29 28 27 27 27 27 27 28 28 29 30 32 33 34 34 34 34 34 33 32 32 32 31 31 31 31 32
43 43 42 42 42 42 42 41 41 41 40 39 38 37 37 36 36 36 36 36 36 36 36 36 35 34 33 33 33 32 32 31 31 31 31 30 29 28 28 28 28 28 28 28 28 28 29 30 30 30 30 31 32 33 33 33 32 32 31 31 30 30 30 30 30 30 31 31 32
44 44 43 43 43 43 43 42 42 42 41 40 39 39 38 37 37 37 37 37 37 37 37 37 36 36 35 35 35 35 34 32 32 32 31 31 30 29 29 28 29 29 29 30 31 31 32 33 32 32 31 31 30 30 30 29 29 29 29 28 28 28 28 29 29 30 31 31 32
45 44 44 44 44 43 43 43 42 42 41 40 39 39 39 38 38 38 38 37 38 38 37 37 37 37 37 37 37 37 35 33 32 31 30 30 30 30 30 31 31 32 32 32 32 32 32 32 31 30 28 27 26 26 26 26 26 26 27 27 27 27 27 28 29 29 30 31 31
45 44 44 43 43 43 43 43 42 41 40 39 39 39 39 39 39 38 38 38 38 38 38 37 37 37 37 38 38 38 37 35 33 30 29 28 28 29 30 32 33 34 33 32 31 29 28 27 26 25 24 23 23 23 24 24 25 25 26 26 26 27 27 27 28 28 29 30 30
44 43 43 42 42 42 42 42 41 41 40 39 38 38 39 39 39 39 39 38 38 38 38 38 37 37 38 38 39 39 39 37 34 31 29 29 28 29 30 31 32 33 32 30 28 26 24 23 22 22 22 22 22 23 24 24 25 25 26 26 27 27 27 27 27 27 28 28 29
42 41 41 40 40 40 40 40 40 39 39 38 37 37 38 38 38 39 39 39 38 38 39 39 38 38 38 38 38 39 39 38 36 33 31 30 30 29 29 30 31 31 30 28 26 24 23 22 22 22 22 22 23 23 24 25 25 26 27 27 28 28 28 28 27 27 27 27 28
39 39 38 38 38 38 38 38 38 37 37 36 36 36 36 36 37 38 38 38 38 38 39 39 39 38 38 37 37 38 38 37 37 35 34 32 31 30 29 29 29 29 28 27 25 24 23 22 22 22 22 22 23 24 24 25 26 26 27 27 27 28 28 28 28 28 27 27 27
37 36 36 36 36 36 36 36 36 35 35 35 34 34 34 35 35 36 36 37 37 37 37 37 37 38 38 37 37 37 37 37 37 36 35 33 31 29 28 28 28 28 27 26 25 24 23 23 22 22 22 23 23 23 24 24 25 25 26 26 26 27 27 27 27 28 28 28 28
34 34 34 34 34 34 34 34 34 34 33 33 33 33 33 33 34 34 35 35 36 35 35 35 36 37 37 37 37 37 36 36 36 36 34 32 30 29 28 27 27 27 26 25 24 24 23 23 23 23 23 23 23 23 24 24 24 25 25 25 25 26 26 26 27 27 28 28 28
33 33 33 33 33 33 33 32 32 32 31 31 31 32 32 32 33 33 33 34 34 34 34 35 35 36 37 37 37 36 36 35 34 34 33 32 31 29 28 27 27 25 25 24 23 23 23 23 23 23 23 23 23 23 24 24 24 25 25 25 25 25 25 25 26 26 27 27 28
32 32 32 32 32 31 31 30 30 29 29 29 29 29 29 30 31 32 32 33 34 34 35 35 35 36 37 37 37 36 34 33 32 32 32 32 31 30 29 28 26 25 24 23 22 22 23 23 23 23 23 23 23 24 24 24 25 25 25 25 25 25 25 25 25 25 26 26 27
31 32 32 31 31 30 30 29 28 27 27 26 26 26 26 27 28 29 30 31 32 33 34 34 35 36 37 37 36 35 33 32 31 31 31 31 31 30 29 28 26 25 23 22 22 22 22 23 23 23 23 24 24 24 24 24 24 25 25 25 25 25 25 25 25 25 25 26 26
31 31 31 31 30 29 29 28 27 26 25 24 24 23 23 24 24 25 26 28 29 30 31 32 32 33 34 35 34 33 32 31 31 31 31 31 31 30 29 28 26 25 23 22 22 22 22 23 23 23 24 24 24 24 24 24 24 24 24 24 24 25 25 25 25 25 25 26 26
31 31 30 30 29 28 28 27 26 25 24 23 22 22 21 21 21 22 22 23 24 25 26 27 28 29 30 31 31 31 31 31 31 31 31 31 31 30 29 27 26 24 23 22 22 22 22 22 23 23 23 24 24 24 24 24 24 24 24 24 24 24 24 24 25 25 25 26 26
31 31 30 30 28 27 26 25 25 24 23 22 22 21 20 19 19 19 20 20 21 22 22 23 24 25 27 28 28 28 29 31 32 32 31 31 31 30 29 27 25 24 23 22 22 22 22 22 22 22 23 23 23 23 23 23 23 23 23 24 24 24 24 24 24 24 25 25 25
31 31 31 30 28 27 25 24 23 22 22 21 21 20 19 18 18 18 19 19 19 20 20 20 21 23 24 25 25 26 27 29 30 30 30 29 29 29 27 26 24 23 22 22 22 22 22 22 22 22 22 22 23 23 23 23 23 23 23 23 23 23 23 24 24 24 24 24 24
31 32 31 29 28 26 24 23 22 21 20 20 19 19 18 18 17 17 18 18 18 18 18 19 20 21 22 23 23 23 24 25 26 26 27 27 27 27 26 25 23 22 22 22 22 22 22 22 22 21 21 22 22 22 23 23 22 22 22 22 22 22 23 23 23 22 22 22 22
32 32 31 29 27 25 23 22 20 19 18 18 17 17 17 16 16 16 17 17 17 16 16 17 17 19 20 21 21 21 21 21 22 23 24 24 25 25 25 24 22 22 21 21 21 21 21 21 21 20 21 21 21 22 22 21 21 21 21 21 21 21 21 21 22 21 21 21 21
31 31 29 27 26 24 22 21 19 18 17 16 16 15 15 15 15 15 15 15 14 14 14 14 15 16 18 19 20 20 19 19 20 21 22 22 23 23 23 22 22 21 20 21 21 21 20 20 20 20 20 20 20 20 20 20 20 20 20 20 20 20 20 20 20 21 21 21 20
30 30 28 26 25 23 22 20 18 17 15 15 14 14 14 14 13 13 13 12 12 12 12 13 14 15 16 17 17 17 17 17 18 18 19 20 21 21 21 21 20 20 20 20 20 20 19 19 19 19 20 20 20 19 19 19 19 19 19 19 19 19 19 19 19 19 20 20 20
29 29 27 26 24 23 21 20 18 16 15 14 14 13 13 12 11 11 11 11 11 11 11 12 13 13 14 14 14 15 15 15 16 17 17 18 18 19 19 19 19 19 19 19 18 18 18 18 19 19 19 19 19 19 19 19 19 19 19 19 19 18 18 18 18 19 19 19 19
28 28 27 25 24 22 21 20 18 16 15 13 13 12 12 11 10 9 9 9 9 9 10 10 12 12 12 12 11 12 12 13 14 15 15 16 16 16 17 17 17 17 17 17 17 17 17 18 18 18 19 19 19 19 19 19 19 19 19 19 18 18 18 18 18 18 18 18 18
27 27 26 25 24 22 21 20 18 16 15 13 12 11 11 10 8 7 7 7 7 8 8 9 10 11 11 10 10 10 10 11 12 13 13 14 14 14 14 15 15 15 15 15 16 16 16 17 18 18 19 19 19 19 19 19 19 19 19 18 18 18 18 18 18 18 18 18 18
26 26 26 25 24 22 21 20 18 17 15 13 12 11 10 9 7 6 5 5 6 6 7 8 9 10 10 10 9 9 9 10 10 11 11 12 12 12 13 13 14 14 14 14 15 15 16 17 17 18 18 18 19 19 19 19 19 19 18 18 18 18 18 18 18 18 18 18 18
25 25 25 24 23 22 21 20 18 17 15 13 11 10 9 8 6 5 4 4 4 5 6 7 8 8 9 9 9 9 10 10 10 10 11 11 11 11 12 12 12 13 13 13 14 15 16 16 17 17 18 18 19 19 19 19 19 19 18 18 18 18 18 18 18 18 18 18 18
25 24 24 24 23 22 21 19 18 17 16 13 12 10 9 8 6 5 4 3 4 5 5 6 6 6 7 7 8 9 9 10 10 11 11 11 10 10 11 11 12 12 13 13 14 15 15 16 16 17 17 18 18 19 19 19 19 19 19 19 19 19 19 19 19 19 18 18 18
24 23 23 23 22 22 20 19 18 17 16 14 12 11 9 8 6 5 4 3 4 5 6 6 6 6 6 7 7 8 8 8 9 9 9 9 9 10 10 11 12 12 13 14 14 15 15 16 16 17 17 18 18 19 19 19 19 19 19 20 20 20 20 20 19 19 19 19 19
23 23 22 22 21 21 20 19 18 16 15 14 12 11 10 9 7 5 4 4 4 5 6 7 7 7 7 8 8 7 7 7 8 8 8 9 9 10 11 12 12 13 14 14 15 15 16 16 16 17 17 18 18 18 19 19 19 19 20 20 20 20 20 20 19 19 19 19 19
23 22 21 21 20 20 20 19 18 16 15 13 12 11 10 9 7 6 5 4 5 6 7 8 8 8 8 8 8 8 8 8 8 9 9 10 11 11 12 13 14 14 15 15 15 16 16 16 17 17 17 17 17 18 18 18 19 19 19 19 19 19 19 19 19 19 19 18 18
22 21 20 20 19 19 19 19 18 16 15 14 12 11 10 10 8 7 6 6 6 7 8 9 9 9 9 9 9 9 9 9 9 10 10 11 12 12 13 14 14 15 15 15 15 16 16 16 16 16 16 16 17 17 18 18 18 18 18 18 18 18 18 18 18 18 18 18 18
22 21 20 19 19 19 19 19 18 17 16 14 13 11 10 9 8 8 7 7 8 8 9 9 10 10 10 10 10 10 10 10 10 11 11 12 12 13 13 14 14 15 15 15 15 15 16 16 16 16 16 16 17 17 17 17 18 18 18 18 18 18 18 18 18 18 18 18 18
22 21 20 19 18 18 18 18 18 17 16 15 14 13 11 10 8 7 7 7 8 9 9 10 10 10 11 11 11 11 11 11 11 12 12 12 13 13 13 14 14 14 14 14 15 15 15 15 16 16 16 16 17 17 17 17 17 17 17 17 17 17 17 17 17 17 17 17 17
21 21 20 19 18 18 18 18 18 17 16 15 15 14 13 11 10 8 7 7 7 8 9 10 10 11 11 11 11 12 12 12 12 12 12 13 13 13 13 13 14 14 14 14 14 15 15 15 16 16 16 17 17 17 17 17 17 17 17 17 17 17 17 17 17 17 16 16 16
21 21 20 19 18 18 17 17 17 17 16 16 15 14 14 13 11 10 8 7 7 7 8 9 10 10 11 11 11 12 12 12 12 12 12 12 12 12 12 12 13 13 14 14 14 15 15 16 16 16 17 17 17 17 17 17 17 17 17 17 17 17 17 17 17 16 16 16 15
21 21 20 19 19 18 17 17 17 17 16 16 15 15 14 13 12 11 10 9 8 7 7 7 8 8 9 9 10 10 11 11 11 11 11 11 11 11 11 12 12 13 13 14 14 15 16 16 17 17 17 17 17 17 17 17 17 18 18 18 17 17 17 17 16 16 16 15 15
22 21 21 20 19 19 18 17 17 16 16 15 15 15 14 14 13 12 11 10 9 8 8 7 7 7 7 8 8 9 9 9 10 10 10 10 11 11 11 12 12 13 13 14 14 15 16 16 17 16 16 16 16 17 17 17 18 18 18 18 17 17 17 16 16 16 16 16 16
22 22 21 21 20 19 19 18 17 17 16 15 15 14 14 14 13 13 12 11 10 9 9 8 8 7 7 7 8 8 9 9 10 10 10 11 11 12 12 13 13 13 14 14 14 15 15 16 16 16 15 16 16 17 17 17 17 17 17 17 17 17 17 16 16 16 16 16 16
Wind_Direction
296 295 294 293 291 290 288 286 283 280 277 274 273 270 268 265 263 262 262 261 261 261 260 259 257 254 253 254 257 258 257 257 257 257 257 256 255 255 256 256 256 255 254 253 252 251 250 250 250 251 253 254 256 257 257 258 258 258 259 259 259 258 258 258 257 257 257 256 256
297 295 294 293 291 290 288 287 284 282 279 276 273 271 268 265 263 262 261 260 260 260 259 258 256 253 250 249 252 254 254 254 256 257 258 257 255 254 254 254 255 255 253 252 251 250 250 251 252 254 256 258 258 259 259 259 259 259 259 258 258 258 258 258 258 257 257 257 257
296 295 294 293 291 290 289 287 285 283 280 277 274 271 268 265 263 261 260 259 259 259 258 256 256 253 250 247 249 251 253 253 254 256 258 257 256 254 252 252 252 253 253 252 251 251 252 254 256 258 259 260 260 260 260 259 259 258 258 258 258 258 258 258 258 258 258 257 257
296 294 293 292 291 290 288 286 285 283 281 278 275 272 268 265 263 261 259 258 257 257 256 255 254 253 250 247 248 251 253 254 254 256 257 257 256 254 252 250 250 251 251 251 251 253 255 257 259 260 260 261 261 260 260 259 259 258 258 258 258 259 259 259 259 258 258 257 257
295 293 292 291 290 289 287 286 284 282 280 278 275 272 269 266 263 260 258 256 256 256 255 254 253 252 250 248 249 251 254 255 255 254 253 254 254 253 252 251 251 250 249 250 251 254 257 259 260 261 261 262 261 261 260 260 260 259 259 259 259 259 259 259 259 258 258 257 257
295 293 291 290 289 288 287 285 284 282 280 277 274 272 269 266 263 260 257 255 255 255 254 253 252 250 249 249 249 251 254 255 253 252 251 251 252 252 252 253 253 252 251 252 254 257 259 261 262 262 261 261 261 260 260 260 259 259 259 259 259 260 260 259 259 258 258 257 257
295 293 291 289 288 287 286 285 283 282 279 277 274 271 269 266 263 260 257 255 254 254 253 252 251 249 248 248 250 251 252 252 251 250 250 251 252 253 254 255 255 255 255 256 258 260 261 262 261 260 259 258 258 258 259 258 258 258 258 258 259 259 259 259 259 258 258 257 257
295 293 291 290 288 287 286 285 283 281 279 276 273 270 268 265 263 260 258 256 254 253 252 252 250 248 247 248 249 250 251 250 249 248 249 251 253 255 256 256 256 256 256 257 258 260 260 258 257 256 255 255 256 257 257 257 257 257 257 257 258 258 258 258 258 258 258 257 257
297 295 292 291 289 288 287 285 284 281 279 276 273 270 267 265 262 259 257 255 254 253 252 251 250 248 247 247 248 249 249 248 247 246 248 251 254 256 256 255 254 254 254 255 255 255 253 252 251 251 252 254 255 256 257 257 258 258 258 258 258 258 258 259 259 259 259 258 258
299 297 295 292 291 289 288 286 284 282 279 276 273 270 267 264 261 259 256 255 254 253 252 252 250 249 247 247 247 248 248 247 245 244 246 249 252 254 254 252 251 251 251 251 250 248 247 246 248 250 252 254 256 257 258 259 260 260 260 260 260 260 260 260 260 260 260 259 259
301 299 297 295 293 291 289 287 285 282 279 276 273 269 266 264 261 258 256 254 253 253 253 252 250 248 246 245 246 246 246 245 244 243 244 247 249 251 251 250 248 247 247 247 246 244 244 245 247 250 253 255 257 259 260 261 262 262 262 261 261 261 261 261 261 260 260 260 260
303 301 299 297 295 293 291 289 286 283 280 277 273 269 266 263 260 258 256 254 252 252 252 252 250 247 244 244 244 244 244 243 243 243 244 245 247 249 249 248 245 244 244 244 243 243 244 246 248 251 254 257 259 261 262 263 263 262 262 262 261 261 261 261 261 261 260 260 260
306 304 302 300 298 296 294 291 288 285 282 278 274 270 266 262 260 257 255 254 252 251 250 250 248 246 243 242 242 242 242 242 242 242 243 244 246 247 247 245 243 242 241 241 242 243 245 247 250 253 256 259 261 263 264 264 264 263 262 261 261 261 261 262 261 261 261 261 260
309 308 306 304 302 300 297 294 291 288 285 281 277 272 267 263 260 257 255 254 252 250 249 249 247 245 243 242 242 242 242 241 241 242 242 243 245 245 244 242 241 241 241 243 244 245 247 249 252 255 258 261 264 266 266 265 264 263 262 261 261 261 261 262 262 262 262 262 261
313 311 310 308 306 304 301 298 295 292 288 284 280 274 269 264 260 257 255 254 252 251 249 248 246 245 243 242 243 242 242 241 241 241 242 243 243 242 241 240 240 241 244 246 247 248 249 251 253 257 260 263 265 266 266 265 264 262 261 260 260 260 261 262 263 263 263 263 262
316 315 314 312 310 308 305 302 299 295 292 288 283 277 272 266 261 258 255 253 253 251 250 248 246 244 243 243 242 242 241 241 241 241 242 242 241 240 239 238 240 242 246 248 249 250 250 252 255 257 260 262 264 265 265 264 262 261 259 259 259 260 262 263 264 264 264 264 263
320 319 317 315 312 310 307 305 301 298 295 291 286 280 274 269 264 259 256 253 252 250 248 246 245 244 243 242 241 240 241 241 242 242 241 241 239 238 237 238 240 243 246 248 248 249 250 252 254 256 258 260 263 264 264 263 261 260 259 259 259 261 263 264 264 265 265 264 264
324 322 320 318 315 312 309 306 303 300 297 293 288 282 276 271 266 262 257 254 251 249 247 245 244 242 240 239 238 239 240 241 242 242 241 240 238 237 237 238 240 243 245 246 247 248 250 252 254 255 257 259 261 263 263 262 261 259 259 259 260 262 264 265 266 266 265 265 263
327 325 323 320 317 314 311 308 305 302 298 294 289 284 278 272 267 262 258 254 251 249 247 245 243 241 239 237 237 239 241 242 243 242 241 239 237 236 236 238 241 243 244 245 247 248 250 252 254 255 257 260 262 263 263 262 260 258 258 259 261 263 265 267 268 268 266 264 263
330 328 326 323 320 316 313 310 306 303 299 295 291 286 280 274 267 262 257 254 251 249 247 245 243 240 238 237 238 240 242 243 242 240 238 237 235 235 236 238 241 243 244 245 247 249 251 252 254 256 259 261 263 263 262 260 258 257 258 259 262 264 267 268 269 268 266 264 262
331 330 328 325 322 318 315 312 308 305 301 297 293 288 282 275 268 262 258 254 251 249 246 244 242 240 238 238 239 240 241 240 237 235 233 233 233 234 236 238 241 243 244 245 246 248 250 252 255 258 261 263 263 262 261 259 258 259 260 262 264 267 268 269 269 268 267 265 262
334 333 331 328 325 322 318 314 311 308 305 302 297 292 285 278 271 265 260 256 253 250 246 243 241 240 239 238 238 237 236 234 231 229 229 230 231 233 235 238 240 241 242 243 246 248 250 253 256 258 261 262 262 261 260 259 260 262 264 266 267 268 269 269 269 269 268 266 264
336 335 334 332 329 326 323 319 316 312 310 307 303 298 292 284 276 269 263 259 255 251 247 241 239 238 237 236 235 233 231 228 227 227 228 229 231 232 234 236 238 240 241 244 247 250 252 254 256 258 259 260 260 260 260 261 262 264 265 267 268 269 270 270 270 270 269 267 265
339 339 338 336 334 332 329 325 321 318 315 313 310 306 300 292 283 275 267 262 258 252 244 235 232 232 232 231 229 227 225 225 225 226 227 229 230 232 233 235 237 240 243 247 250 252 253 254 255 256 257 258 259 260 260 261 263 264 266 267 268 269 270 271 272 272 271 268 266
342 342 341 340 339 337 335 332 328 324 321 319 317 313 308 301 291 281 272 265 259 251 239 227 223 223 224 223 221 220 220 221 223 224 226 228 230 232 234 236 238 241 245 249 251 251 251 251 252 254 256 258 259 260 261 262 264 265 266 267 268 269 271 272 274 274 272 270 267
344 345 344 344 343 341 340 337 334 330 327 325 323 320 316 309 299 288 277 268 259 248 235 222 216 215 215 216 215 215 217 219 221 222 224 226 228 231 233 236 239 242 246 248 249 248 248 248 250 253 256 258 259 261 262 264 266 267 267 267 268 269 271 273 275 275 273 271 268
346 347 346 346 345 345 343 341 338 335 332 329 328 325 322 317 308 296 283 270 258 246 232 220 213 210 210 211 213 215 217 220 220 221 221 223 225 229 232 236 239 242 245 246 246 246 247 249 252 254 257 259 261 262 265 266 267 267 267 267 268 270 272 274 275 275 274 271 268
347 348 348 348 347 347 346 344 342 339 335 333 331 328 325 320 314 303 286 268 254 242 230 219 212 210 210 213 217 221 223 223 222 221 222 223 226 229 233 236 240 242 244 245 246 248 250 252 254 256 258 260 262 265 267 268 268 268 267 268 269 271 273 274 274 274 273 270 267
347 348 348 349 349 348 348 347 344 341 338 335 333 330 326 321 315 304 287 266 248 235 226 219 215 214 214 217 222 224 225 225 224 224 225 227 230 233 237 240 242 244 246 248 251 253 254 255 256 258 260 262 265 268 269 269 269 268 268 269 271 272 273 274 273 272 271 269 266
346 348 348 349 349 350 349 349 347 344 341 338 335 332 328 321 313 302 284 260 240 227 220 219 217 218 219 221 222 222 222 222 224 226 228 230 232 235 238 242 245 248 251 254 255 256 257 258 259 261 263 265 267 269 270 270 269 269 270 271 273 274 274 273 273 271 269 267 265
345 346 348 348 349 350 350 350 349 347 344 341 338 336 332 325 314 298 275 250 233 224 221 221 223 225 226 226 223 220 220 222 225 228 230 232 234 237 240 243 247 251 255 257 258 258 259 260 261 264 265 267 268 269 269 269 269 269 270 272 273 273 273 272 271 270 268 266 264
343 345 346 348 349 350 350 351 351 350 348 344 341 338 335 329 318 299 274 249 234 228 227 228 230 231 231 229 227 225 225 228 233 237 240 242 243 244 246 249 252 255 258 259 260 260 261 263 264 265 266 267 268 268 268 268 268 269 270 271 272 272 272 271 270 269 268 266 265
341 343 345 346 347 348 349 350 351 352 351 348 343 338 334 329 321 306 283 261 246 238 235 235 235 235 234 233 232 232 233 235 239 243 247 249 251 252 254 256 258 260 262 262 262 263 263 265 266 266 267 267 267 267 267 267 268 269 270 270 270 270 270 269 268 268 267 266 265
340 341 343 344 345 346 347 348 349 351 352 351 346 339 333 327 321 311 294 276 261 251 246 245 244 242 241 240 239 238 239 240 242 245 248 251 254 256 258 260 262 265 266 266 265 264 264 265 266 266 266 266 266 266 266 267 267 268 268 268 268 268 267 267 267 267 267 266 264
338 339 340 342 343 343 344 345 346 348 350 351 349 344 337 330 322 311 298 284 272 263 256 253 252 250 249 248 246 245 244 244 245 247 249 252 256 259 261 264 266 269 270 268 266 264 264 264 265 266 266 266 266 266 266 267 267 267 267 267 266 265 265 265 266 266 266 265 264
336 336 337 338 339 340 340 341 342 344 346 347 348 346 342 336 328 316 300 286 275 268 263 260 258 257 256 255 254 253 251 250 250 251 253 256 258 261 264 267 269 271 272 270 267 264 263 263 264 265 266 266 266 267 267 267 267 268 267 266 265 264 263 264 264 265 265 265 263
334 334 334 334 335 335 336 337 338 339 340 341 343 343 342 339 335 327 313 294 279 269 264 262 260 260 259 258 257 257 257 256 256 256 258 259 261 263 265 266 268 270 272 271 268 266 264 263 264 264 266 266 267 267 267 268 268 268 268 267 265 264 263 262 263 263 264 263 263
331 332 332 332 331 331 332 333 334 334 334 334 336 337 338 337 336 333 327 316 298 281 270 263 260 258 257 256 256 256 257 257 257 257 258 259 260 261 262 264 266 268 270 271 270 268 266 266 265 265 266 267 267 268 268 269 269 269 268 267 266 264 263 262 262 262 262 262 262
329 330 329 329 329 329 328 329 329 330 329 328 328 329 330 332 331 331 330 326 317 304 289 275 266 260 256 255 255 256 256 256 257 257 258 259 260 261 263 264 267 270 272 272 271 270 269 268 266 265 266 267 268 269 270 270 270 269 268 266 265 264 263 262 261 260 260 259 260
328 328 327 327 327 326 326 326 326 326 325 324 323 322 322 323 324 324 324 323 320 314 305 293 282 271 264 261 260 260 261 261 261 262 262 264 265 267 269 271 273 274 275 274 272 273 273 271 267 265 266 268 269 270 271 271 271 270 268 266 265 264 263 262 260 259 258 257 258
326 326 326 325 324 324 323 323 322 322 322 321 319 317 316 316 316 317 317 316 315 313 309 303 295 286 277 272 270 270 270 270 270 270 271 272 273 275 276 277 278 278 277 274 273 274 275 273 268 265 266 269 271 272 272 272 271 269 267 265 264 263 262 261 260 258 257 257 257